Location: Newark
(35.6799°N, 139.7636°E)
Time: 02:29:42
(UTC+00:00)

SR - Visible Passes

Search period start: 14 December 2019 00:00
Search period end: 24 December 2019 00:00
Orbit: 573 x 882 km, 66.7° (Epoch: 13 December)

Date Brightness Start Highest point End Pass type
(mag) Time Alt. Az. Time Alt. Az. Time Alt. Az.
14 Dec ? 08:51:20 10° NW 08:57:01 59° WSW 09:02:16 10° S visible
15 Dec ? 08:01:35 10° NNW 08:07:24 70° ENE 08:12:46 10° SE visible
15 Dec ? 09:45:54 10° WNW 09:48:43 14° WSW 09:51:26 10° SW visible
16 Dec ? 08:54:36 10° NW 08:59:30 30° WSW 09:04:06 10° SSW visible
17 Dec ? 08:04:23 10° NNW 08:10:05 63° WSW 08:15:21 10° SSE visible
17 Dec ? 20:50:21 10° SSE 20:54:12 20° ESE 20:58:16 10° ENE visible
18 Dec ? 08:58:45 10° WNW 09:01:49 15° WSW 09:04:46 10° SW visible
19 Dec ? 08:07:36 10° NW 08:12:35 32° WSW 08:17:15 10° S visible
19 Dec ? 20:51:36 10° S 20:56:36 39° ESE 21:01:56 10° NE visible
20 Dec ? 20:03:35 10° SSE 20:07:19 19° ESE 20:11:12 10° ENE visible
21 Dec ? 08:11:37 10° WNW 08:14:55 16° WSW 08:18:04 10° SW visible
21 Dec ? 20:53:43 10° SSW 20:59:10 76° ESE 21:05:01 10° NNE visible
22 Dec ? 20:04:43 10° S 20:09:41 37° ESE 20:14:58 10° NE visible
23 Dec ? 19:16:50 10° SE 19:20:25 18° ESE 19:24:07 10° ENE visible
23 Dec ? 20:56:29 10° SW 21:01:54 58° WNW 21:07:43 10° NNE visible
